Location: *
(28.3744°N, 81.5492°W)
Time: 04:10:53
(UTC+00:00)

Okean O Rocket - Pass Details

Date: 15 June 2025
Orbit: 615 x 635 km, 98.0° (Epoch: 11 July)

Event Time Altitude Azimuth Distance (km) Brightness Sun altitude
Exits shadow 02:35:48 38° 224° (SW) 943 2.4 -23.9°
Maximum altitude 02:36:46 45° 260° (W) 845 2.4 -24.1°
Drops below altitude 10° 02:40:53 10° 333° (NNW) 1,977 5.1 -24.7°
Sets 02:43:09 0° 340° (NNW) 2,885 6.1 -25.0°
